VKG557 ENGM-LEMG

Flight info

Callsign VKG557
Flight time N/A
Altitude 34000
Route VIPPA DCT UPGAS DCT TIPAN DCT EZTIM UM185 DIGSU N866 GASGU/N0455F350 N866 SAM/N0453F340 N63 LELNA/N0458F350 DCT NOVAN DCT DELOG DCT CRISA N864 MOCEQ DCT VULPE
Aircraft A321/M-SDE3FGHIRWY/LB1

Departure

Time N/A
Airport Oslo-Gardermoen International Airport (ENGM)

Arrival

Time 2026-05-05 10:51
Airport Málaga-Costa del Sol Airport (LEMG)
Time Latitude Longitude Altitude Speed Heading
2026-05-05 07:28 57.43771 7.93560 33986 ft 405 kts 223°
2026-05-05 07:28 57.41512 7.90315 33992 ft 405 kts 223°
2026-05-05 07:29 57.37089 7.83970 33991 ft 405 kts 223°
2026-05-05 07:29 57.32641 7.77590 33991 ft 404 kts 223°
2026-05-05 07:30 57.28182 7.71212 33992 ft 406 kts 222°
2026-05-05 07:30 57.21469 7.61674 33996 ft 406 kts 222°
2026-05-05 07:31 57.16994 7.55324 33999 ft 406 kts 222°
2026-05-05 07:31 57.12507 7.48981 34001 ft 407 kts 222°
2026-05-05 07:32 57.08006 7.42654 34000 ft 408 kts 222°
2026-05-05 07:32 57.03495 7.36338 34005 ft 408 kts 222°
2026-05-05 07:33 56.98987 7.30025 34005 ft 408 kts 222°
2026-05-05 07:33 56.94476 7.23725 34005 ft 408 kts 222°
2026-05-05 07:34 56.89960 7.17449 33975 ft 408 kts 221°
2026-05-05 07:34 56.85424 7.11154 34009 ft 410 kts 221°
2026-05-05 07:35 56.80867 7.04867 34011 ft 411 kts 221°
2026-05-05 07:35 56.76308 6.98595 34013 ft 410 kts 221°
2026-05-05 07:36 56.71748 6.92335 34015 ft 410 kts 221°
2026-05-05 07:36 56.67186 6.86097 34015 ft 410 kts 221°
2026-05-05 07:37 56.62610 6.79855 34022 ft 413 kts 221°
2026-05-05 07:37 56.58012 6.73592 34007 ft 414 kts 221°
2026-05-05 07:38 56.53400 6.67338 34011 ft 414 kts 221°
2026-05-05 07:38 56.48790 6.61099 34010 ft 414 kts 221°
2026-05-05 07:39 56.44168 6.54875 34006 ft 414 kts 221°
2026-05-05 07:39 56.39548 6.48669 33991 ft 415 kts 220°
2026-05-05 07:40 56.34892 6.42443 34014 ft 417 kts 220°
2026-05-05 07:40 56.30225 6.36207 34012 ft 418 kts 220°
2026-05-05 07:41 56.25554 6.29990 34010 ft 418 kts 220°
2026-05-05 07:41 56.20873 6.23787 34014 ft 418 kts 220°
2026-05-05 07:42 56.16187 6.17589 34015 ft 418 kts 220°
2026-05-05 07:42 56.11487 6.11374 34008 ft 421 kts 220°
2026-05-05 07:43 56.06759 6.05164 34010 ft 422 kts 220°
2026-05-05 07:43 56.02025 5.98969 34011 ft 422 kts 220°
2026-05-05 07:44 55.97287 5.92778 34010 ft 422 kts 220°
2026-05-05 07:44 55.92547 5.86605 34010 ft 422 kts 220°
2026-05-05 07:45 55.87802 5.80455 34010 ft 422 kts 219°
2026-05-05 07:45 55.83053 5.74308 34010 ft 422 kts 219°
2026-05-05 07:46 55.78307 5.68170 34011 ft 422 kts 219°
2026-05-05 07:46 55.73555 5.62048 34013 ft 422 kts 219°
2026-05-05 07:47 55.68788 5.55957 34010 ft 422 kts 219°
2026-05-05 07:47 55.64023 5.49869 34000 ft 423 kts 219°
2026-05-05 07:48 55.59339 5.43888 34011 ft 424 kts 219°
2026-05-05 07:48 55.54554 5.37796 34016 ft 424 kts 219°
2026-05-05 07:49 55.49756 5.31721 34013 ft 424 kts 219°
2026-05-05 07:49 55.44956 5.25666 34006 ft 424 kts 219°
2026-05-05 07:50 55.40182 5.19662 33996 ft 425 kts 219°
2026-05-05 07:50 55.35363 5.13614 34025 ft 426 kts 218°
2026-05-05 07:51 55.30535 5.07576 34011 ft 426 kts 218°
2026-05-05 07:51 55.25705 5.01549 34008 ft 426 kts 218°
2026-05-05 07:52 55.20563 4.96307 34016 ft 429 kts 212°
2026-05-05 07:52 55.15309 4.91344 34004 ft 430 kts 211°
2026-05-05 07:53 55.10883 4.87175 34016 ft 432 kts 211°
2026-05-05 07:53 55.05614 4.82239 34015 ft 433 kts 211°
2026-05-05 07:54 55.00305 4.77280 34022 ft 433 kts 211°
2026-05-05 07:54 54.95000 4.72330 34024 ft 432 kts 211°
2026-05-05 07:55 54.89692 4.67391 34020 ft 434 kts 211°
2026-05-05 07:55 54.84344 4.62434 34027 ft 436 kts 210°
2026-05-05 07:56 54.78977 4.57477 34025 ft 436 kts 210°
2026-05-05 07:56 54.73618 4.52524 34023 ft 436 kts 210°
2026-05-05 07:57 54.68259 4.47597 34025 ft 436 kts 210°
2026-05-05 07:57 54.62882 4.42677 34025 ft 439 kts 210°
2026-05-05 07:58 54.57871 4.36802 34025 ft 435 kts 225°
2026-05-05 07:58 54.53469 4.29742 34031 ft 435 kts 224°
2026-05-05 07:59 54.49012 4.22684 34017 ft 435 kts 224°
2026-05-05 07:59 54.44553 4.15655 34026 ft 435 kts 224°
2026-05-05 08:00 54.40072 4.08619 34026 ft 438 kts 224°
2026-05-05 08:00 54.35567 4.01540 34024 ft 440 kts 224°
2026-05-05 08:01 54.31042 3.94475 34021 ft 440 kts 224°
2026-05-05 08:01 54.26512 3.87430 34021 ft 440 kts 224°
2026-05-05 08:02 54.21986 3.80389 34021 ft 440 kts 224°
2026-05-05 08:02 54.17453 3.73349 34019 ft 441 kts 223°
2026-05-05 08:03 54.12886 3.66294 34021 ft 443 kts 223°
2026-05-05 08:03 54.08305 3.59246 34023 ft 444 kts 223°
2026-05-05 08:04 54.03720 3.52217 34020 ft 444 kts 223°
2026-05-05 08:04 53.99161 3.45247 34022 ft 444 kts 223°
2026-05-05 08:05 53.94576 3.38238 34015 ft 443 kts 222°
2026-05-05 08:05 53.89980 3.31239 34021 ft 444 kts 222°
2026-05-05 08:06 53.85372 3.24256 34024 ft 444 kts 222°
2026-05-05 08:06 53.80757 3.17287 34024 ft 444 kts 222°
2026-05-05 08:07 53.76137 3.10331 34026 ft 445 kts 222°
2026-05-05 08:07 53.71503 3.03363 34027 ft 446 kts 222°
2026-05-05 08:08 53.66862 2.96413 34025 ft 446 kts 221°
2026-05-05 08:08 53.62221 2.89473 34022 ft 446 kts 221°
2026-05-05 08:09 53.57582 2.82554 34021 ft 446 kts 221°
2026-05-05 08:09 53.52932 2.75640 34020 ft 446 kts 221°
2026-05-05 08:10 53.48273 2.68752 34019 ft 446 kts 221°
2026-05-05 08:10 53.43627 2.61917 34019 ft 446 kts 221°
2026-05-05 08:11 53.38958 2.55066 34017 ft 447 kts 220°
2026-05-05 08:11 53.34255 2.48249 34019 ft 447 kts 220°
2026-05-05 08:12 53.29536 2.41453 34016 ft 448 kts 220°
2026-05-05 08:12 53.24816 2.34663 34016 ft 448 kts 220°
2026-05-05 08:13 53.20111 2.27881 34015 ft 446 kts 220°
2026-05-05 08:13 53.15426 2.21086 34013 ft 446 kts 220°
2026-05-05 08:14 53.10748 2.14327 34013 ft 445 kts 220°
2026-05-05 08:14 53.06063 2.07582 34012 ft 445 kts 220°
2026-05-05 08:15 53.01367 2.00862 34016 ft 447 kts 220°
2026-05-05 08:15 52.96651 1.94132 34017 ft 445 kts 220°
2026-05-05 08:16 52.91969 1.87445 34013 ft 443 kts 220°
2026-05-05 08:16 52.87292 1.80795 34016 ft 443 kts 220°
2026-05-05 08:17 52.82611 1.74161 34016 ft 443 kts 220°
2026-05-05 08:17 52.77922 1.67543 34016 ft 443 kts 220°
2026-05-05 08:18 52.73233 1.60956 34008 ft 441 kts 220°
2026-05-05 08:18 52.68609 1.54456 34007 ft 439 kts 220°
2026-05-05 08:19 52.63956 1.47938 34003 ft 440 kts 220°
2026-05-05 08:19 52.59276 1.41407 34004 ft 442 kts 220°
2026-05-05 08:20 52.54582 1.34885 34004 ft 442 kts 220°
2026-05-05 08:20 52.49861 1.28328 34007 ft 440 kts 220°
2026-05-05 08:21 52.45239 1.21934 34006 ft 438 kts 220°
2026-05-05 08:21 52.40572 1.15495 34008 ft 437 kts 220°
2026-05-05 08:22 52.35912 1.09073 34002 ft 437 kts 219°
2026-05-05 08:22 52.31258 1.02686 34002 ft 437 kts 219°
2026-05-05 08:23 52.26595 0.96307 34002 ft 437 kts 219°
2026-05-05 08:23 52.21940 0.89950 34007 ft 435 kts 219°
2026-05-05 08:24 52.17300 0.83639 33995 ft 435 kts 219°
2026-05-05 08:24 52.12652 0.77336 34000 ft 435 kts 219°
2026-05-05 08:25 52.08003 0.71046 33996 ft 435 kts 219°
2026-05-05 08:25 52.03361 0.64754 33994 ft 434 kts 222°
2026-05-05 08:26 51.99377 0.57385 33998 ft 434 kts 231°
2026-05-05 08:26 51.95585 0.49765 34000 ft 434 kts 230°
2026-05-05 08:27 51.91768 0.42152 34002 ft 436 kts 230°
2026-05-05 08:27 51.87933 0.34518 34002 ft 437 kts 230°
2026-05-05 08:28 51.84096 0.26897 34002 ft 437 kts 230°
2026-05-05 08:28 51.80262 0.19281 33998 ft 437 kts 230°
2026-05-05 08:29 51.76427 0.11711 34000 ft 435 kts 230°
2026-05-05 08:29 51.74508 0.07935 34173 ft 435 kts 230°
2026-05-05 08:30 51.70665 0.00385 34615 ft 435 kts 230°
2026-05-05 08:30 51.68744 -0.03390 34826 ft 436 kts 230°
2026-05-05 08:30 51.66816 -0.07172 34961 ft 438 kts 230°
2026-05-05 08:31 51.62935 -0.14764 35003 ft 439 kts 230°
2026-05-05 08:31 51.59049 -0.22345 35001 ft 439 kts 230°
2026-05-05 08:32 51.55156 -0.29912 35002 ft 439 kts 230°
2026-05-05 08:32 51.51264 -0.37466 35002 ft 438 kts 230°
2026-05-05 08:33 51.47374 -0.45002 35001 ft 439 kts 230°
2026-05-05 08:33 51.43471 -0.52510 35002 ft 439 kts 230°
2026-05-05 08:34 51.39559 -0.60014 35006 ft 439 kts 230°
2026-05-05 08:34 51.35638 -0.67518 35005 ft 439 kts 230°
2026-05-05 08:35 51.31718 -0.75008 35006 ft 439 kts 230°
2026-05-05 08:35 51.27799 -0.82469 35012 ft 438 kts 230°
2026-05-05 08:36 51.23876 -0.89918 35014 ft 438 kts 229°
2026-05-05 08:36 51.19972 -0.97085 35016 ft 437 kts 223°
2026-05-05 08:37 51.16337 -1.02685 35011 ft 437 kts 223°
2026-05-05 08:37 51.11244 -1.10496 35004 ft 438 kts 223°
2026-05-05 08:38 51.07571 -1.16122 35003 ft 438 kts 223°
2026-05-05 08:38 51.03179 -1.22836 35007 ft 438 kts 223°
2026-05-05 08:39 50.98785 -1.29544 35010 ft 438 kts 223°
2026-05-05 08:39 50.94067 -1.35607 35009 ft 437 kts 210°
2026-05-05 08:40 50.88651 -1.39992 35008 ft 437 kts 207°
2026-05-05 08:40 50.83216 -1.44317 35005 ft 438 kts 206°
2026-05-05 08:41 50.77776 -1.48659 34991 ft 438 kts 206°
2026-05-05 08:41 50.72326 -1.52993 34991 ft 439 kts 206°
2026-05-05 08:42 50.66869 -1.57305 34992 ft 439 kts 206°
2026-05-05 08:42 50.61403 -1.61614 34980 ft 440 kts 206°
2026-05-05 08:43 50.55932 -1.65931 34977 ft 440 kts 206°
2026-05-05 08:43 50.50449 -1.70234 34982 ft 441 kts 206°
2026-05-05 08:44 50.44959 -1.74522 34980 ft 441 kts 206°
2026-05-05 08:44 50.39465 -1.78806 34977 ft 441 kts 206°
2026-05-05 08:45 50.34009 -1.83059 34984 ft 441 kts 206°
2026-05-05 08:45 50.28482 -1.87358 34992 ft 441 kts 206°
2026-05-05 08:46 50.22982 -1.91621 34983 ft 442 kts 206°
2026-05-05 08:46 50.17473 -1.95870 34987 ft 441 kts 206°
2026-05-05 08:47 50.11969 -2.00111 34991 ft 441 kts 206°
2026-05-05 08:47 50.06470 -2.04338 34991 ft 441 kts 206°
2026-05-05 08:48 50.01006 -2.08537 34993 ft 440 kts 206°
2026-05-05 08:48 49.95289 -2.12049 34982 ft 440 kts 197°
2026-05-05 08:49 49.89463 -2.14752 34977 ft 440 kts 197°
2026-05-05 08:49 49.83604 -2.17482 34979 ft 440 kts 197°
2026-05-05 08:50 49.77741 -2.20217 34980 ft 440 kts 197°
2026-05-05 08:50 49.71876 -2.22945 34985 ft 440 kts 197°
2026-05-05 08:51 49.66005 -2.25669 34990 ft 440 kts 196°
2026-05-05 08:51 49.60124 -2.28392 34971 ft 441 kts 196°
2026-05-05 08:52 49.54238 -2.31112 34972 ft 442 kts 196°
2026-05-05 08:52 49.48346 -2.33816 34973 ft 442 kts 196°
2026-05-05 08:53 49.42459 -2.36508 34982 ft 442 kts 196°
2026-05-05 08:53 49.36564 -2.39199 34992 ft 442 kts 196°
2026-05-05 08:54 49.30667 -2.41891 34989 ft 442 kts 196°
2026-05-05 08:54 49.24782 -2.44578 34986 ft 441 kts 195°
2026-05-05 08:55 49.18954 -2.47219 34963 ft 439 kts 195°
2026-05-05 08:55 49.13098 -2.49866 34959 ft 439 kts 195°
2026-05-05 08:56 49.07239 -2.52514 34969 ft 440 kts 195°
2026-05-05 08:56 49.01371 -2.55154 34987 ft 439 kts 195°
2026-05-05 08:57 48.95530 -2.57779 34977 ft 436 kts 195°
2026-05-05 08:57 48.89723 -2.60392 34974 ft 435 kts 195°
2026-05-05 08:58 48.83917 -2.62989 34974 ft 435 kts 195°
2026-05-05 08:58 48.78097 -2.65585 34953 ft 437 kts 195°
2026-05-05 08:59 48.72262 -2.68186 34946 ft 437 kts 195°
2026-05-05 08:59 48.66416 -2.70789 34943 ft 438 kts 195°
2026-05-05 09:00 48.60563 -2.73383 34943 ft 438 kts 194°
2026-05-05 09:00 48.54813 -2.75920 34950 ft 438 kts 194°
2026-05-05 09:01 48.48959 -2.78493 34959 ft 438 kts 194°
2026-05-05 09:01 48.43140 -2.81044 34956 ft 438 kts 194°
2026-05-05 09:02 48.37273 -2.83624 34937 ft 440 kts 194°
2026-05-05 09:02 48.31385 -2.86204 34929 ft 442 kts 194°
2026-05-05 09:03 48.25477 -2.88786 34920 ft 443 kts 194°
2026-05-05 09:03 48.19558 -2.91363 34929 ft 443 kts 194°
2026-05-05 09:04 48.13621 -2.93941 34929 ft 445 kts 194°
2026-05-05 09:04 48.07669 -2.96520 34924 ft 446 kts 194°
2026-05-05 09:05 48.01708 -2.99100 34921 ft 447 kts 194°
2026-05-05 09:05 47.95725 -3.01678 34924 ft 449 kts 194°
2026-05-05 09:06 47.89711 -3.04268 34920 ft 450 kts 194°
2026-05-05 09:06 47.83682 -3.06850 34922 ft 451 kts 194°
2026-05-05 09:07 47.77732 -3.09404 34928 ft 452 kts 194°
2026-05-05 09:07 47.71709 -3.11983 34930 ft 453 kts 194°
2026-05-05 09:08 47.65700 -3.14543 34929 ft 453 kts 194°
2026-05-05 09:08 47.59619 -3.17129 34929 ft 454 kts 194°
2026-05-05 09:09 47.53538 -3.19712 34935 ft 455 kts 194°
2026-05-05 09:09 47.47458 -3.22291 34930 ft 455 kts 194°
2026-05-05 09:10 47.41369 -3.24862 34929 ft 455 kts 194°
2026-05-05 09:10 47.35272 -3.27429 34933 ft 456 kts 194°
2026-05-05 09:11 47.29175 -3.29988 34942 ft 456 kts 194°
2026-05-05 09:11 47.23067 -3.32545 34944 ft 457 kts 194°
2026-05-05 09:12 47.16952 -3.35097 34942 ft 457 kts 194°
2026-05-05 09:12 47.10825 -3.37640 34942 ft 458 kts 194°
2026-05-05 09:13 47.04694 -3.40188 34946 ft 458 kts 194°
2026-05-05 09:13 46.98558 -3.42756 34946 ft 458 kts 194°
2026-05-05 09:14 46.92467 -3.45286 34948 ft 458 kts 194°
2026-05-05 09:14 46.86333 -3.47814 34954 ft 458 kts 194°
2026-05-05 09:15 46.80195 -3.50339 34956 ft 458 kts 194°
2026-05-05 09:15 46.74061 -3.52855 34955 ft 458 kts 194°
2026-05-05 09:16 46.67932 -3.55374 34957 ft 458 kts 194°
2026-05-05 09:16 46.61803 -3.57892 34956 ft 458 kts 194°
2026-05-05 09:17 46.55674 -3.60398 34955 ft 458 kts 194°
2026-05-05 09:17 46.49540 -3.62896 34963 ft 458 kts 194°
2026-05-05 09:18 46.43406 -3.65386 34953 ft 458 kts 194°
2026-05-05 09:18 46.37267 -3.67881 34951 ft 458 kts 194°
2026-05-05 09:19 46.31133 -3.70070 34952 ft 457 kts 186°
2026-05-05 09:19 46.24816 -3.71003 34957 ft 456 kts 185°
2026-05-05 09:20 46.18497 -3.71951 34954 ft 457 kts 185°
2026-05-05 09:20 46.12178 -3.72909 34955 ft 457 kts 185°
2026-05-05 09:21 46.05854 -3.73856 34958 ft 457 kts 185°
2026-05-05 09:21 45.99532 -3.74783 34953 ft 457 kts 185°
2026-05-05 09:22 45.93207 -3.75718 34959 ft 457 kts 185°
2026-05-05 09:22 45.86881 -3.76661 34963 ft 457 kts 186°
2026-05-05 09:23 45.80556 -3.77593 34960 ft 457 kts 186°
2026-05-05 09:23 45.74223 -3.78515 34963 ft 457 kts 185°
2026-05-05 09:24 45.67892 -3.79436 34970 ft 458 kts 186°
2026-05-05 09:24 45.61555 -3.80370 34971 ft 458 kts 186°
2026-05-05 09:25 45.55220 -3.81292 34972 ft 458 kts 186°
2026-05-05 09:25 45.49944 -3.82062 34978 ft 458 kts 186°
2026-05-05 09:26 45.43601 -3.82983 34964 ft 459 kts 186°
2026-05-05 09:26 45.37252 -3.83901 34965 ft 459 kts 186°
2026-05-05 09:27 45.30898 -3.84822 34962 ft 459 kts 186°
2026-05-05 09:27 45.24536 -3.85748 34966 ft 460 kts 186°
2026-05-05 09:28 45.18158 -3.86669 34963 ft 461 kts 186°
2026-05-05 09:28 45.11762 -3.87583 34968 ft 462 kts 186°
2026-05-05 09:29 45.05359 -3.88498 34963 ft 463 kts 186°
2026-05-05 09:29 44.98992 -3.89408 34969 ft 463 kts 186°
2026-05-05 09:30 44.92583 -3.90329 34970 ft 463 kts 187°
2026-05-05 09:30 44.86171 -3.91236 34975 ft 463 kts 186°
2026-05-05 09:31 44.79756 -3.92141 34976 ft 463 kts 186°
2026-05-05 09:31 44.73344 -3.93050 34982 ft 463 kts 187°
2026-05-05 09:32 44.66930 -3.93970 34984 ft 463 kts 187°
2026-05-05 09:32 44.60514 -3.94881 34986 ft 463 kts 187°
2026-05-05 09:33 44.54078 -3.95786 34986 ft 463 kts 187°
2026-05-05 09:33 44.47663 -3.96679 34987 ft 463 kts 187°
2026-05-05 09:34 44.41287 -3.97570 34993 ft 463 kts 187°
2026-05-05 09:34 44.34866 -3.98471 34990 ft 463 kts 187°
2026-05-05 09:35 44.28450 -3.99328 35001 ft 463 kts 186°
2026-05-05 09:35 44.18805 -4.00384 35003 ft 463 kts 186°
2026-05-05 09:36 44.12382 -4.01085 35004 ft 463 kts 187°
2026-05-05 09:36 44.05968 -4.01825 35013 ft 462 kts 187°
2026-05-05 09:37 43.99563 -4.02565 35015 ft 462 kts 187°
2026-05-05 09:37 43.93166 -4.03282 35008 ft 461 kts 186°
2026-05-05 09:38 43.86774 -4.04001 35012 ft 461 kts 186°
2026-05-05 09:38 43.80390 -4.04729 35013 ft 460 kts 187°
2026-05-05 09:39 43.74003 -4.05449 35010 ft 461 kts 187°
2026-05-05 09:39 43.67613 -4.06174 35012 ft 461 kts 187°
2026-05-05 09:40 43.61224 -4.06887 35016 ft 461 kts 187°
2026-05-05 09:40 43.54829 -4.07600 35014 ft 461 kts 187°
2026-05-05 09:41 43.48444 -4.08318 35028 ft 460 kts 187°
2026-05-05 09:41 43.42097 -4.09033 35034 ft 460 kts 187°
2026-05-05 09:42 43.35711 -4.09744 35021 ft 460 kts 187°
2026-05-05 09:42 43.29329 -4.10447 35029 ft 460 kts 187°
2026-05-05 09:43 43.22941 -4.11158 35031 ft 461 kts 187°
2026-05-05 09:43 43.16555 -4.11862 35025 ft 460 kts 187°
2026-05-05 09:44 43.10174 -4.12562 35007 ft 459 kts 188°
2026-05-05 09:44 43.03802 -4.13265 35014 ft 459 kts 188°
2026-05-05 09:45 42.97439 -4.13968 35010 ft 459 kts 188°
2026-05-05 09:45 42.91084 -4.14667 35001 ft 458 kts 188°
2026-05-05 09:46 42.84735 -4.15356 35004 ft 457 kts 188°
2026-05-05 09:46 42.78391 -4.16050 35001 ft 457 kts 188°
2026-05-05 09:47 42.72048 -4.16746 35005 ft 457 kts 188°
2026-05-05 09:47 42.65709 -4.17439 35010 ft 457 kts 188°
2026-05-05 09:48 42.59406 -4.18122 35010 ft 457 kts 188°
2026-05-05 09:48 42.53075 -4.18808 34988 ft 457 kts 188°
2026-05-05 09:49 42.46733 -4.19492 35003 ft 457 kts 188°
2026-05-05 09:49 42.40394 -4.20178 35014 ft 457 kts 188°
2026-05-05 09:50 42.34060 -4.20860 35020 ft 456 kts 188°
2026-05-05 09:50 42.27732 -4.21539 35020 ft 456 kts 188°
2026-05-05 09:51 42.21407 -4.22218 35018 ft 456 kts 188°
2026-05-05 09:51 42.15080 -4.22902 35026 ft 456 kts 188°
2026-05-05 09:52 42.08754 -4.23577 35017 ft 456 kts 189°
2026-05-05 09:52 42.02436 -4.24246 35023 ft 455 kts 189°
2026-05-05 09:53 41.96119 -4.24914 35026 ft 455 kts 189°
2026-05-05 09:53 41.89799 -4.25591 35019 ft 455 kts 189°
2026-05-05 09:54 41.83494 -4.26264 35028 ft 455 kts 189°
2026-05-05 09:54 41.77185 -4.26926 35034 ft 454 kts 189°
2026-05-05 09:55 41.70883 -4.27586 35034 ft 454 kts 189°
2026-05-05 09:55 41.64586 -4.28255 35024 ft 453 kts 189°
2026-05-05 09:56 41.58297 -4.28922 35036 ft 453 kts 189°
2026-05-05 09:56 41.52059 -4.29576 35039 ft 453 kts 189°
2026-05-05 09:57 41.45736 -4.30232 35017 ft 452 kts 190°
2026-05-05 09:57 41.39508 -4.30879 35037 ft 452 kts 190°
2026-05-05 09:58 41.33248 -4.31540 35037 ft 451 kts 190°
2026-05-05 09:58 41.26985 -4.32202 35039 ft 451 kts 190°
2026-05-05 09:59 41.20734 -4.32848 35040 ft 450 kts 190°
2026-05-05 09:59 41.14489 -4.33489 35045 ft 450 kts 190°
2026-05-05 10:00 41.08257 -4.34143 35049 ft 449 kts 190°
2026-05-05 10:00 41.02026 -4.34796 35035 ft 448 kts 191°
2026-05-05 10:01 40.95825 -4.35424 35051 ft 447 kts 191°
2026-05-05 10:01 40.89632 -4.36052 35050 ft 446 kts 191°
2026-05-05 10:02 40.83448 -4.36696 35051 ft 445 kts 191°
2026-05-05 10:02 40.77277 -4.37340 35041 ft 444 kts 191°
2026-05-05 10:03 40.71164 -4.37969 35049 ft 443 kts 191°
2026-05-05 10:03 40.65021 -4.38592 35050 ft 442 kts 191°
2026-05-05 10:04 40.58886 -4.39216 35043 ft 442 kts 191°
2026-05-05 10:04 40.52757 -4.39839 35036 ft 442 kts 191°
2026-05-05 10:05 40.46627 -4.40457 35028 ft 442 kts 191°
2026-05-05 10:05 40.40502 -4.41081 35027 ft 441 kts 191°
2026-05-05 10:06 40.34383 -4.41703 35008 ft 440 kts 192°
2026-05-05 10:06 40.28279 -4.42318 35026 ft 439 kts 192°
2026-05-05 10:07 40.22190 -4.42937 35029 ft 439 kts 192°
2026-05-05 10:07 40.16105 -4.43551 35004 ft 438 kts 192°
2026-05-05 10:08 40.10030 -4.44163 35017 ft 438 kts 192°
2026-05-05 10:08 40.03957 -4.44774 35022 ft 437 kts 192°
2026-05-05 10:09 39.97931 -4.45374 35021 ft 437 kts 192°
2026-05-05 10:09 39.91863 -4.45975 34986 ft 436 kts 193°
2026-05-05 10:10 39.85808 -4.46578 35010 ft 436 kts 193°
2026-05-05 10:10 39.79763 -4.47183 35017 ft 436 kts 193°
2026-05-05 10:11 39.73717 -4.47781 35024 ft 436 kts 193°
2026-05-05 10:11 39.67671 -4.48382 34994 ft 436 kts 193°
2026-05-05 10:12 39.61629 -4.48990 35002 ft 435 kts 193°
2026-05-05 10:12 39.55587 -4.49599 34999 ft 435 kts 193°
2026-05-05 10:13 39.49536 -4.50195 35008 ft 436 kts 193°
2026-05-05 10:13 39.43488 -4.50782 35003 ft 436 kts 193°
2026-05-05 10:14 39.37440 -4.51375 35013 ft 436 kts 193°
2026-05-05 10:14 39.32413 -4.51869 35016 ft 436 kts 193°
2026-05-05 10:15 39.26364 -4.52466 34984 ft 436 kts 193°
2026-05-05 10:15 39.20325 -4.53055 35022 ft 435 kts 193°
2026-05-05 10:16 39.14302 -4.53649 35031 ft 434 kts 193°
2026-05-05 10:16 39.08288 -4.54237 35037 ft 433 kts 193°
2026-05-05 10:17 39.02281 -4.54816 34978 ft 432 kts 194°
2026-05-05 10:17 38.96291 -4.55403 35014 ft 432 kts 194°
2026-05-05 10:18 38.90345 -4.56172 35028 ft 427 kts 198°
2026-05-05 10:18 38.84517 -4.57421 35035 ft 423 kts 199°
2026-05-05 10:19 38.78712 -4.58770 34999 ft 424 kts 199°
2026-05-05 10:19 38.72885 -4.60041 35011 ft 425 kts 199°
2026-05-05 10:20 38.67038 -4.61243 35018 ft 426 kts 198°
2026-05-05 10:20 38.61190 -4.62436 35024 ft 426 kts 198°
2026-05-05 10:21 38.55343 -4.63641 34975 ft 426 kts 198°
2026-05-05 10:21 38.49474 -4.64848 35007 ft 428 kts 198°
2026-05-05 10:22 38.43597 -4.66054 35016 ft 428 kts 198°
2026-05-05 10:22 38.37721 -4.67271 35021 ft 428 kts 198°
2026-05-05 10:23 38.31884 -4.68479 35027 ft 428 kts 198°
2026-05-05 10:23 38.26002 -4.69688 35027 ft 428 kts 198°
2026-05-05 10:24 38.20121 -4.70892 35029 ft 428 kts 198°
2026-05-05 10:24 38.14242 -4.72093 35028 ft 428 kts 198°
2026-05-05 10:25 38.08353 -4.73291 35003 ft 428 kts 198°
2026-05-05 10:25 38.02471 -4.74483 35008 ft 429 kts 198°
2026-05-05 10:26 37.96574 -4.75682 34994 ft 430 kts 198°
2026-05-05 10:26 37.93620 -4.76284 34612 ft 428 kts 198°
2026-05-05 10:26 37.90678 -4.76886 34373 ft 429 kts 198°
2026-05-05 10:27 37.87713 -4.77497 33529 ft 435 kts 198°
2026-05-05 10:27 37.84725 -4.78113 32637 ft 435 kts 197°
2026-05-05 10:27 37.81754 -4.78792 31774 ft 432 kts 202°
2026-05-05 10:27 37.78942 -4.79993 30960 ft 422 kts 211°
2026-05-05 10:28 37.76385 -4.81746 30055 ft 417 kts 220°
2026-05-05 10:28 37.74081 -4.83949 29151 ft 414 kts 222°
2026-05-05 10:28 37.71499 -4.85624 28857 ft 429 kts 202°
2026-05-05 10:28 37.68469 -4.86064 28592 ft 449 kts 186°
2026-05-05 10:29 37.65330 -4.85922 28318 ft 452 kts 186°
2026-05-05 10:29 37.62184 -4.85844 28045 ft 452 kts 187°
2026-05-05 10:29 37.59034 -4.85828 27748 ft 454 kts 187°
2026-05-05 10:29 37.55871 -4.85852 27490 ft 455 kts 188°
2026-05-05 10:30 37.52699 -4.85889 27228 ft 456 kts 188°
2026-05-05 10:30 37.49522 -4.85922 26968 ft 457 kts 187°
2026-05-05 10:30 37.46337 -4.85940 26713 ft 458 kts 187°
2026-05-05 10:30 37.43147 -4.85944 26462 ft 459 kts 187°
2026-05-05 10:31 37.39950 -4.85937 26194 ft 460 kts 187°
2026-05-05 10:31 37.36748 -4.85924 25141 ft 463 kts 186°
2026-05-05 10:31 37.33509 -4.85919 23986 ft 469 kts 186°
2026-05-05 10:31 37.30237 -4.85917 22939 ft 470 kts 185°
2026-05-05 10:32 37.26986 -4.85912 22174 ft 464 kts 185°
2026-05-05 10:32 37.23782 -4.85905 21394 ft 458 kts 185°
2026-05-05 10:32 37.20613 -4.85900 20649 ft 452 kts 185°
2026-05-05 10:32 37.17484 -4.85896 19905 ft 448 kts 185°
2026-05-05 10:33 37.14386 -4.85892 19177 ft 443 kts 185°
2026-05-05 10:33 37.11320 -4.85889 18473 ft 438 kts 185°
2026-05-05 10:33 37.08288 -4.85887 17717 ft 434 kts 185°
2026-05-05 10:33 37.05297 -4.85886 17058 ft 427 kts 185°
2026-05-05 10:34 37.02367 -4.85882 16748 ft 413 kts 185°
2026-05-05 10:34 36.99554 -4.85877 16617 ft 395 kts 185°
2026-05-05 10:34 36.96859 -4.85871 16489 ft 379 kts 185°
2026-05-05 10:34 36.94270 -4.85866 16360 ft 365 kts 185°
2026-05-05 10:35 36.91777 -4.85862 16230 ft 352 kts 185°
2026-05-05 10:35 36.89374 -4.85859 16102 ft 339 kts 186°
2026-05-05 10:35 36.87061 -4.85858 15956 ft 327 kts 186°
2026-05-05 10:35 36.84823 -4.85858 15809 ft 316 kts 186°
2026-05-05 10:36 36.82645 -4.85796 15589 ft 312 kts 179°
2026-05-05 10:36 36.80510 -4.85171 15496 ft 320 kts 165°
2026-05-05 10:36 36.78509 -4.83859 15059 ft 332 kts 148°
2026-05-05 10:36 36.76762 -4.81946 14531 ft 339 kts 142°
2026-05-05 10:37 36.75045 -4.79972 14266 ft 332 kts 142°
2026-05-05 10:37 36.73359 -4.78034 13755 ft 328 kts 142°
2026-05-05 10:37 36.71684 -4.76120 13169 ft 325 kts 142°
2026-05-05 10:37 36.70019 -4.74230 12594 ft 322 kts 142°
2026-05-05 10:38 36.68366 -4.72361 12043 ft 319 kts 141°
2026-05-05 10:38 36.66731 -4.70512 11602 ft 312 kts 141°
2026-05-05 10:38 36.65168 -4.68739 11416 ft 297 kts 141°
2026-05-05 10:38 36.63660 -4.67028 11094 ft 291 kts 141°
2026-05-05 10:39 36.62170 -4.65345 10785 ft 288 kts 141°
2026-05-05 10:39 36.60683 -4.63670 10429 ft 288 kts 141°
2026-05-05 10:39 36.59206 -4.62004 10088 ft 287 kts 141°
2026-05-05 10:39 36.57734 -4.60343 9770 ft 284 kts 141°
2026-05-05 10:40 36.56265 -4.58685 9435 ft 282 kts 140°
2026-05-05 10:40 36.54840 -4.57072 9254 ft 274 kts 140°
2026-05-05 10:40 36.53618 -4.55272 8936 ft 273 kts 122°
2026-05-05 10:40 36.52851 -4.53118 8586 ft 273 kts 109°
2026-05-05 10:41 36.52244 -4.50885 8243 ft 272 kts 109°
2026-05-05 10:41 36.51641 -4.48703 7847 ft 270 kts 110°
2026-05-05 10:41 36.51020 -4.46472 7506 ft 268 kts 109°
2026-05-05 10:41 36.50420 -4.44316 7136 ft 267 kts 109°
2026-05-05 10:42 36.49110 -4.40053 6320 ft 261 kts 122°
2026-05-05 10:42 36.48004 -4.38286 5916 ft 257 kts 134°
2026-05-05 10:42 36.46818 -4.36660 5847 ft 255 kts 133°
2026-05-05 10:43 36.45632 -4.35015 5776 ft 255 kts 133°
2026-05-05 10:43 36.44457 -4.33377 5689 ft 254 kts 133°
2026-05-05 10:43 36.43302 -4.31768 5634 ft 242 kts 132°
2026-05-05 10:43 36.42487 -4.30048 5598 ft 226 kts 103°
2026-05-05 10:44 36.42538 -4.28142 5483 ft 223 kts 69°
2026-05-05 10:44 36.43393 -4.26650 5224 ft 209 kts 32°
2026-05-05 10:44 36.44636 -4.25803 5010 ft 198 kts 18°
2026-05-05 10:44 36.45895 -4.25188 4805 ft 192 kts 17°
2026-05-05 10:45 36.47156 -4.24690 4602 ft 189 kts
2026-05-05 10:45 36.48443 -4.24704 4394 ft 183 kts 345°
2026-05-05 10:45 36.49610 -4.25264 4187 ft 180 kts 327°
2026-05-05 10:45 36.50532 -4.26271 4020 ft 176 kts 311°
2026-05-05 10:46 36.51346 -4.27404 3952 ft 175 kts 311°
2026-05-05 10:46 36.52158 -4.28531 3875 ft 175 kts 311°
2026-05-05 10:46 36.52973 -4.29663 3807 ft 177 kts 311°
2026-05-05 10:46 36.53796 -4.30806 3698 ft 177 kts 311°
2026-05-05 10:47 36.54611 -4.31940 3493 ft 175 kts 311°
2026-05-05 10:47 36.55423 -4.33070 3270 ft 175 kts 312°
2026-05-05 10:47 36.56236 -4.34201 3040 ft 176 kts 312°
2026-05-05 10:47 36.57048 -4.35332 2813 ft 175 kts 312°
2026-05-05 10:48 36.57855 -4.36457 2584 ft 173 kts 312°
2026-05-05 10:48 36.58650 -4.37564 2351 ft 167 kts 312°
2026-05-05 10:48 36.59402 -4.38612 2131 ft 158 kts 312°
2026-05-05 10:48 36.60121 -4.39615 1930 ft 153 kts 311°
2026-05-05 10:49 36.60822 -4.40592 1734 ft 150 kts 311°
2026-05-05 10:49 36.61515 -4.41559 1522 ft 149 kts 311°
2026-05-05 10:49 36.62205 -4.42523 1331 ft 150 kts 310°
2026-05-05 10:49 36.62891 -4.43480 1132 ft 143 kts 310°
2026-05-05 10:50 36.63540 -4.44385 942 ft 137 kts 309°
2026-05-05 10:50 36.64171 -4.45267 764 ft 136 kts 309°
2026-05-05 10:50 36.64800 -4.46145 589 ft 135 kts 309°
2026-05-05 10:50 36.65423 -4.47016 411 ft 134 kts 309°
2026-05-05 10:51 36.66046 -4.47886 238 ft 135 kts 310°
2026-05-05 10:51 36.66669 -4.48755 57 ft 133 kts 308°
2026-05-05 10:51 36.67218 -4.49530 47 ft 94 kts 311°
2026-05-05 10:51 36.67526 -4.49958 52 ft 37 kts 311°
2026-05-05 10:52 36.67646 -4.50118 54 ft 23 kts 323°
2026-05-05 10:52 36.67768 -4.50205 54 ft 18 kts 335°
2026-05-05 10:52 36.67859 -4.50230 50 ft 11 kts 21°
2026-05-05 10:52 36.67862 -4.50137 44 ft 13 kts 131°
2026-05-05 10:53 36.67806 -4.50057 44 ft 12 kts 131°
2026-05-05 10:53 36.67750 -4.49979 44 ft 15 kts 132°
2026-05-05 10:53 36.67675 -4.49873 43 ft 16 kts 131°
2026-05-05 10:53 36.67605 -4.49775 43 ft 14 kts 131°
2026-05-05 10:54 36.67541 -4.49687 43 ft 13 kts 133°
2026-05-05 10:54 36.67483 -4.49605 42 ft 12 kts 131°
2026-05-05 10:54 36.67428 -4.49527 42 ft 13 kts 132°
2026-05-05 10:54 36.67352 -4.49420 43 ft 17 kts 131°
2026-05-05 10:55 36.67286 -4.49328 42 ft 11 kts 131°
2026-05-05 10:55 36.67291 -4.49257 42 ft 9 kts 37°
2026-05-05 10:55 36.67347 -4.49231 41 ft 8 kts 27°
2026-05-05 10:55 36.67366 -4.49186 42 ft 5 kts 100°
2026-05-05 10:56 36.67352 -4.49145 42 ft 4 kts 116°
2026-05-05 10:56 36.67349 -4.49137 42 ft 1 kts 116°
2026-05-05 10:56 36.67347 -4.49133 42 ft 0 kts 116°